ROCKY HARBOUR CS/NF, current weather conditions

sailwx.info

Last reported at 2014-Jun-04 18:15 UTC.
Time now 2014-Jul-24 20:05 UTC

Location: N 49°34' W 057°53'.
View on Google Maps.

See reports from other nearby stations

  
Tides and Currents Weather Stations Pressure Air Temp Water Temp Dewpoint Dewpoint Depression Visibility Wind Speed Wind Dir Waves Ship Positions
date/time (UTC)wind fromknots sea level pressurealtimeterstation pressurevisibilityair tempwater tempwave heightnotes
2014-Jul-24 18:00 030 1 21.0
2014-Jul-24 17:00 280 3 19.0
2014-Jul-24 16:00 270 3 19.0
2014-Jul-24 15:00 280 5 20.0
2014-Jul-24 14:00 300 5 19.0
2014-Jul-24 13:00 330 2 19.0
2014-Jul-24 12:00 330 2 19.0
2014-Jul-24 11:00 250 5 20.0
2014-Jul-24 10:00 220 2 20.0
2014-Jul-24 09:00 230 6 19.0
2014-Jul-24 08:00 220 7 20.0
2014-Jul-24 07:00 210 6 20.0
2014-Jul-24 06:00 220 4 20.0
2014-Jul-24 05:00 230 11 gusting 18 20.0
2014-Jul-24 04:00 200 8 22.0
2014-Jul-24 03:00 220 11 gusting 20 24.0
2014-Jul-24 02:00 220 10 gusting 20 24.0
2014-Jul-24 01:00 220 10 gusting 16 24.0
2014-Jul-24 00:00 220 9 gusting 18 24.0
2014-Jul-23 23:00 220 8 gusting 17 25.0
2014-Jul-23 22:00 220 8 gusting 17 25.0
2014-Jul-23 21:00 200 7 28.0
2014-Jul-23 20:00 220 8 29.0
2014-Jul-23 16:00 290 4 28.0
2014-Jul-23 15:00 280 3 28.0
2014-Jul-23 11:00 21.0
2014-Jul-23 10:00 070 2 19.0
2014-Jul-23 09:00 040 2 18.0
2014-Jul-23 08:00 170 3 18.0
2014-Jul-23 07:00 150 5 18.0
2014-Jul-23 06:00 120 5 18.0
2014-Jul-23 05:00 160 1 18.0
2014-Jul-23 04:00 220 7 18.0
2014-Jul-23 03:00 180 4 19.0
2014-Jul-23 02:00 160 3 20.0
2014-Jul-23 01:00 180 4 21.0
2014-Jul-23 00:00 220 3 21.0
2014-Jul-22 23:00 230 7 gusting 15 21.0
2014-Jul-22 22:00 210 3 21.0
2014-Jul-22 21:00 230 9 gusting 19 23.0
2014-Jul-22 20:00 230 11 gusting 17 24.0